This is the latest recevied weather packets stored in our database for station/object WB3EGK. If no packets are shown the sender has not sent any weather packets the latest 10 day(s).
| Time | Temp. | Humidity | Pressure | Rain* | Wind** | Luminosity | Snow |
|---|---|---|---|---|---|---|---|
| 1778167380 | 11.67° C | 1% | 1009.9 hPa | 0 mm | - | 301 W/m² | - |
| 1778167075 | 11.11° C | 1% | 1009.9 hPa | 0 mm | - | 943 W/m² | - |
| 1778166772 | 11.67° C | 1% | 1009.8 hPa | 0 mm | - | 285 W/m² | - |
| 1778166469 | 11.67° C | 1% | 1009.8 hPa | 0 mm | - | 1047 W/m² | - |
| 1778166166 | 11.11° C | 1% | 1010 hPa | 0 mm | - | 920 W/m² | - |
| 1778165862 | 11.11° C | 1% | 1010 hPa | 0 mm | - | 200 W/m² | - |
| 1778165558 | 11.67° C | 1% | 1010 hPa | 0 mm | - | 910 W/m² | - |
| 1778165256 | 11.67° C | 1% | 1009.9 hPa | 0 mm | - | 832 W/m² | - |
| 1778164953 | 12.22° C | 1% | 1009.9 hPa | 0 mm | - | 839 W/m² | - |
| 1778164649 | 11.67° C | 1% | 1010 hPa | 0 mm | - | 586 W/m² | - |
| 1778164347 | 10.56° C | 1% | 1010.1 hPa | 0 mm | - | 795 W/m² | - |
| 1778164043 | 10.56° C | 1% | 1010.2 hPa | 0 mm | - | 737 W/m² | - |
| 1778163739 | 11.11° C | 1% | 1010.2 hPa | 0 mm | - | 744 W/m² | - |
| 1778163435 | 10.56° C | 1% | 1010.2 hPa | 0 mm | - | 728 W/m² | - |
| 1778163133 | 10.56° C | 1% | 1010.4 hPa | 0 mm | - | 720 W/m² | - |
| 1778162829 | 10.56° C | 1% | 1010.2 hPa | 0 mm | - | 688 W/m² | - |
| 1778162527 | 10.56° C | 1% | 1010.2 hPa | 0 mm | - | 661 W/m² | - |
| 1778162223 | 10° C | 1% | 1010.3 hPa | 0 mm | - | 624 W/m² | - |
| 1778161921 | 10° C | 1% | 1010.4 hPa | 0 mm | - | 588 W/m² | - |
| 1778161617 | 10° C | 1% | 1010.5 hPa | 0 mm | - | 542 W/m² | - |
| 1778161313 | 10° C | 1% | 1010.5 hPa | 0 mm | - | 505 W/m² | - |
| 1778161009 | 8.89° C | 1% | 1010.6 hPa | 0 mm | - | 514 W/m² | - |
| 1778160707 | 8.89° C | 1% | 1010.6 hPa | 0 mm | - | 402 W/m² | - |
| 1778160404 | 8.89° C | 1% | 1010.5 hPa | 0 mm | - | 516 W/m² | - |
| 1778160100 | 8.33° C | 1% | 1010.6 hPa | 0 mm | - | 463 W/m² | - |
* Rain latest hour (hover to see other rain measurements)
** Current wind speed in m/s (hover to see current wind gust speed)